Time,TemperatureF,DewpointF,PressureIn,WindDirection,WindDirectionDegrees,WindSpeedMPH,WindSpeedGustMPH,Humidity,HourlyPrecipIn,Conditions,Clouds,dailyrainin,SoftwareType,DateUTC
2013-01-08 00:04:00,37.6,1.2,30.15,WNW,286,23.3,23.3,21,-99.99,,---,-99.99,VWS V14.01,2013-01-08 08:04:00,
2013-01-08 00:09:00,37.6,1.2,30.15,WNW,291,24.2,25.5,21,-99.99,,---,-99.99,VWS V14.01,2013-01-08 08:09:00,
2013-01-08 00:14:00,37.6,1.2,30.15,WNW,298,19.7,19.7,21,-99.99,,---,-99.99,VWS V14.01,2013-01-08 08:14:00,
2013-01-08 00:19:00,37.6,1.2,30.15,NW,305,20.6,20.6,21,-99.99,,---,-99.99,VWS V14.01,2013-01-08 08:19:00,
2013-01-08 00:24:00,37.8,1.4,30.15,WNW,302,19.7,25.7,21,-99.99,,---,-99.99,VWS V14.01,2013-01-08 08:24:00,
2013-01-08 00:29:00,37.8,1.4,30.15,WNW,303,21.5,21.5,21,-99.99,,---,-99.99,VWS V14.01,2013-01-08 08:29:00,
2013-01-08 00:34:00,37.8,1.4,30.15,WNW,296,19.7,19.7,21,-99.99,,---,-99.99,VWS V14.01,2013-01-08 08:34:00,
2013-01-08 00:39:00,37.8,1.4,30.15,NW,309,15.9,15.9,21,-99.99,,---,-99.99,VWS V14.01,2013-01-08 08:39:00,
2013-01-08 00:44:00,37.8,1.4,30.15,WNW,289,23.7,23.7,21,-99.99,,---,-99.99,VWS V14.01,2013-01-08 08:44:00,
2013-01-08 00:49:00,37.8,1.4,30.15,WNW,300,23.7,23.7,21,-99.99,,---,-99.99,VWS V14.01,2013-01-08 08:49:00,
2013-01-08 00:54:00,38.3,1.8,30.15,WNW,293,23.7,23.7,21,-99.99,,---,-99.99,VWS V14.01,2013-01-08 08:54:00,
2013-01-08 00:59:00,38.5,2.0,30.15,NW,308,23.3,23.3,21,-99.99,,---,-99.99,VWS V14.01,2013-01-08 08:59:00,
2013-01-08 01:04:00,38.5,2.0,30.15,NW,304,22.8,22.8,21,-99.99,,---,-99.99,VWS V14.01,2013-01-08 09:04:00,
2013-01-08 01:09:00,38.5,2.0,30.15,North,0,22.8,22.8,21,-99.99,,---,-99.99,VWS V14.01,2013-01-08 09:09:00,
2013-01-08 01:14:00,38.5,2.0,30.15,West,278,15.4,15.4,21,-99.99,,---,-99.99,VWS V14.01,2013-01-08 09:14:00,
2013-01-08 01:19:00,38.5,2.0,30.15,NNW,339,15.9,15.9,21,-99.99,,---,-99.99,VWS V14.01,2013-01-08 09:19:00,
2013-01-08 01:24:00,38.5,2.0,30.15,NW,312,19.7,19.7,21,-99.99,,---,-99.99,VWS V14.01,2013-01-08 09:24:00,
2013-01-08 01:29:00,38.5,2.0,30.15,NNW,331,22.4,22.4,21,-99.99,,---,-99.99,VWS V14.01,2013-01-08 09:29:00,
2013-01-08 01:34:00,38.5,2.0,30.15,WNW,298,17.4,17.4,21,-99.99,,---,-99.99,VWS V14.01,2013-01-08 09:34:00,
2013-01-08 01:39:00,38.5,2.0,30.18,NW,319,22.8,22.8,21,-99.99,,---,-99.99,VWS V14.01,2013-01-08 09:39:00,
2013-01-08 01:44:00,38.5,2.0,30.18,NNW,331,19.7,19.7,21,-99.99,,---,-99.99,VWS V14.01,2013-01-08 09:44:00,
2013-01-08 01:49:00,38.5,2.0,30.18,WNW,298,18.3,18.3,21,-99.99,,---,-99.99,VWS V14.01,2013-01-08 09:49:00,
2013-01-08 01:54:00,38.5,2.0,30.18,NW,306,18.8,18.8,21,-99.99,,---,-99.99,VWS V14.01,2013-01-08 09:54:00,
2013-01-08 01:59:00,38.5,2.0,30.18,NNW,332,17.4,17.4,21,-99.99,,---,-99.99,VWS V14.01,2013-01-08 09:59:00,
2013-01-08 02:04:00,38.5,2.0,30.15,NNW,345,16.3,16.8,21,-99.99,,---,-99.99,VWS V14.01,2013-01-08 10:04:00,
2013-01-08 02:09:00,38.5,2.0,30.15,NNW,346,16.3,16.3,21,-99.99,,---,-99.99,VWS V14.01,2013-01-08 10:09:00,
2013-01-08 02:14:00,38.5,2.0,30.15,NNW,328,17.4,17.4,21,-99.99,,---,-99.99,VWS V14.01,2013-01-08 10:14:00,
2013-01-08 02:19:00,38.5,2.0,30.15,NW,311,14.1,14.1,21,-99.99,,---,-99.99,VWS V14.01,2013-01-08 10:19:00,
2013-01-08 02:24:00,38.5,2.0,30.15,WNW,301,16.3,16.3,21,-99.99,,---,-99.99,VWS V14.01,2013-01-08 10:24:00,
2013-01-08 02:29:00,38.5,2.0,30.18,WNW,300,20.6,20.6,21,-99.99,,---,-99.99,VWS V14.01,2013-01-08 10:29:00,
2013-01-08 02:34:00,38.5,2.0,30.18,WNW,286,19.2,19.2,21,-99.99,,---,-99.99,VWS V14.01,2013-01-08 10:34:00,
2013-01-08 02:39:00,38.5,2.0,30.18,WNW,299,21.9,21.9,21,-99.99,,---,-99.99,VWS V14.01,2013-01-08 10:39:00,
2013-01-08 02:44:00,38.5,2.0,30.18,WNW,298,15.4,15.4,21,-99.99,,---,-99.99,VWS V14.01,2013-01-08 10:44:00,
2013-01-08 02:49:00,38.5,2.0,30.18,WNW,290,15.4,15.4,21,-99.99,,---,-99.99,VWS V14.01,2013-01-08 10:49:00,
2013-01-08 02:54:00,38.5,2.0,30.18,WNW,288,17.9,17.9,21,-99.99,,---,-99.99,VWS V14.01,2013-01-08 10:54:00,
2013-01-08 02:59:00,38.5,2.0,30.18,WNW,303,17.4,17.4,21,-99.99,,---,-99.99,VWS V14.01,2013-01-08 10:59:00,
2013-01-08 03:04:00,38.5,2.0,30.18,WNW,297,13.2,13.2,21,-99.99,,---,-99.99,VWS V14.01,2013-01-08 11:04:00,
2013-01-08 03:09:00,38.5,2.0,30.18,WNW,299,17.0,17.0,21,-99.99,,---,-99.99,VWS V14.01,2013-01-08 11:09:00,
2013-01-08 03:14:00,38.5,2.0,30.21,NW,317,14.5,14.5,21,-99.99,,---,-99.99,VWS V14.01,2013-01-08 11:14:00,
2013-01-08 03:19:00,38.5,2.0,30.21,WNW,290,12.3,12.3,21,-99.99,,---,-99.99,VWS V14.01,2013-01-08 11:19:00,
2013-01-08 03:24:00,38.5,2.0,30.21,NW,307,13.2,13.2,21,-99.99,,---,-99.99,VWS V14.01,2013-01-08 11:24:00,
2013-01-08 03:29:00,38.5,2.0,30.21,WNW,302,15.4,15.4,21,-99.99,,---,-99.99,VWS V14.01,2013-01-08 11:29:00,
2013-01-08 03:34:00,38.5,2.0,30.21,WNW,294,15.4,15.4,21,-99.99,,---,-99.99,VWS V14.01,2013-01-08 11:34:00,
2013-01-08 03:40:00,38.7,2.1,30.21,WNW,285,15.9,15.9,21,-99.99,,---,-99.99,VWS V14.01,2013-01-08 11:40:00,
2013-01-08 03:45:00,38.7,2.1,30.21,WNW,284,11.0,14.5,21,-99.99,,---,-99.99,VWS V14.01,2013-01-08 11:45:00,
2013-01-08 03:50:00,38.7,2.1,30.21,WNW,286,12.3,12.3,21,-99.99,,---,-99.99,VWS V14.01,2013-01-08 11:50:00,
2013-01-08 03:55:00,38.7,2.1,30.21,West,271,14.5,14.5,21,-99.99,,---,-99.99,VWS V14.01,2013-01-08 11:55:00,
2013-01-08 04:00:00,38.7,2.1,30.18,WNW,300,10.5,11.9,21,-99.99,,---,-99.99,VWS V14.01,2013-01-08 12:00:00,
2013-01-08 04:05:00,37.9,1.5,30.18,West,276,12.3,12.3,21,-99.99,,---,-99.99,VWS V14.01,2013-01-08 12:05:00,
2013-01-08 04:10:00,37.9,1.5,30.18,WNW,298,14.1,14.1,21,-99.99,,---,-99.99,VWS V14.01,2013-01-08 12:10:00,
2013-01-08 04:15:00,37.9,1.5,30.18,West,274,10.1,10.1,21,-99.99,,---,-99.99,VWS V14.01,2013-01-08 12:15:00,
2013-01-08 04:20:00,37.9,1.5,30.18,West,268,8.7,8.7,21,-99.99,,---,-99.99,VWS V14.01,2013-01-08 12:20:00,
2013-01-08 04:25:00,37.6,1.2,30.18,West,269,10.1,10.1,21,-99.99,,---,-99.99,VWS V14.01,2013-01-08 12:25:00,
2013-01-08 04:30:00,37.6,1.2,30.18,West,262,8.7,8.7,21,-99.99,,---,-99.99,VWS V14.01,2013-01-08 12:30:00,
2013-01-08 04:35:00,37.6,1.2,30.18,WSW,255,8.1,8.1,21,-99.99,,---,-99.99,VWS V14.01,2013-01-08 12:35:00,
2013-01-08 04:40:00,37.6,1.2,30.18,WSW,250,8.3,8.7,21,-99.99,,---,-99.99,VWS V14.01,2013-01-08 12:40:00,
2013-01-08 04:45:00,37.6,1.2,30.18,WSW,247,10.1,11.0,21,-99.99,,---,-99.99,VWS V14.01,2013-01-08 12:45:00,
2013-01-08 04:50:00,39.6,2.9,30.18,WSW,246,10.5,10.5,21,-99.99,,---,-99.99,VWS V14.01,2013-01-08 12:50:00,
2013-01-08 04:55:00,39.6,2.9,30.18,WSW,250,11.0,11.0,21,-99.99,,---,-99.99,VWS V14.01,2013-01-08 12:55:00,
2013-01-08 05:00:00,39.6,2.9,30.18,WSW,249,11.0,11.0,21,-99.99,,---,-99.99,VWS V14.01,2013-01-08 13:00:00,
2013-01-08 05:05:00,39.6,2.9,30.18,WSW,243,11.0,11.0,21,-99.99,,---,-99.99,VWS V14.01,2013-01-08 13:05:00,
2013-01-08 05:10:00,39.6,2.9,30.18,SW,236,11.0,11.0,21,-99.99,,---,-99.99,VWS V14.01,2013-01-08 13:10:00,
2013-01-08 05:15:00,39.6,2.9,30.18,WSW,246,10.5,10.5,21,-99.99,,---,-99.99,VWS V14.01,2013-01-08 13:15:00,
2013-01-08 05:20:00,39.6,2.9,30.18,SW,230,8.7,8.7,21,-99.99,,---,-99.99,VWS V14.01,2013-01-08 13:20:00,
2013-01-08 05:25:00,39.6,2.9,30.18,SW,230,9.6,9.6,21,-99.99,,---,-99.99,VWS V14.01,2013-01-08 13:25:00,
2013-01-08 05:30:00,39.6,2.9,30.18,SW,231,8.7,8.7,21,-99.99,,---,-99.99,VWS V14.01,2013-01-08 13:30:00,
2013-01-08 05:35:00,40.5,3.6,30.18,SW,229,10.1,10.1,21,-99.99,,---,-99.99,VWS V14.01,2013-01-08 13:35:00,
2013-01-08 05:40:00,40.5,3.6,30.18,SW,221,8.7,8.7,21,-99.99,,---,-99.99,VWS V14.01,2013-01-08 13:40:00,
2013-01-08 05:45:00,40.5,3.6,30.18,SW,231,10.5,10.5,21,-99.99,,---,-99.99,VWS V14.01,2013-01-08 13:45:00,
2013-01-08 05:50:00,40.3,3.5,30.18,SW,234,11.0,11.0,21,-99.99,,---,-99.99,VWS V14.01,2013-01-08 13:50:00,
2013-01-08 05:55:00,39.7,3.0,30.18,WSW,239,11.4,11.4,21,-99.99,,---,-99.99,VWS V14.01,2013-01-08 13:55:00,
2013-01-08 06:00:00,39.7,3.0,30.18,WSW,243,11.0,11.0,21,-99.99,,---,-99.99,VWS V14.01,2013-01-08 14:00:00,
2013-01-08 06:05:00,38.8,2.3,30.18,WSW,241,11.0,11.0,21,-99.99,,---,-99.99,VWS V14.01,2013-01-08 14:05:00,
2013-01-08 06:10:00,38.8,2.3,30.18,WSW,238,12.8,12.8,21,-99.99,,---,-99.99,VWS V14.01,2013-01-08 14:10:00,
2013-01-08 06:15:00,39.0,2.4,30.18,SW,233,10.5,10.5,21,-99.99,,---,-99.99,VWS V14.01,2013-01-08 14:15:00,
2013-01-08 06:20:00,39.0,2.4,30.18,WSW,243,12.3,12.3,21,-99.99,,---,-99.99,VWS V14.01,2013-01-08 14:20:00,
2013-01-08 06:25:00,39.7,3.0,30.18,SW,233,14.1,14.1,21,-99.99,,---,-99.99,VWS V14.01,2013-01-08 14:25:00,
2013-01-08 06:30:00,40.3,3.5,30.18,WSW,243,14.1,14.1,21,-99.99,,---,-99.99,VWS V14.01,2013-01-08 14:30:00,
2013-01-08 06:35:00,40.3,3.5,30.18,SW,233,10.5,10.5,21,-99.99,,---,-99.99,VWS V14.01,2013-01-08 14:35:00,
2013-01-08 06:40:00,40.5,3.6,30.18,SW,231,10.5,10.5,21,-99.99,,---,-99.99,VWS V14.01,2013-01-08 14:40:00,
2013-01-08 06:45:00,40.6,3.8,30.18,SW,234,11.0,11.0,21,-99.99,,---,-99.99,VWS V14.01,2013-01-08 14:45:00,
2013-01-08 06:50:00,40.6,3.8,30.18,WSW,244,10.5,10.5,21,-99.99,,---,-99.99,VWS V14.01,2013-01-08 14:50:00,
2013-01-08 06:55:00,40.6,3.8,30.18,WSW,250,12.3,12.3,21,-99.99,,---,-99.99,VWS V14.01,2013-01-08 14:55:00,
2013-01-08 07:00:00,40.8,3.9,30.18,WSW,246,11.0,11.0,21,-99.99,,---,-99.99,VWS V14.01,2013-01-08 15:00:00,
2013-01-08 07:05:00,40.6,3.8,30.18,WSW,247,10.1,10.1,21,-99.99,,---,-99.99,VWS V14.01,2013-01-08 15:05:00,
2013-01-08 07:10:00,40.6,3.8,30.18,WSW,250,10.5,10.5,21,-99.99,,---,-99.99,VWS V14.01,2013-01-08 15:10:00,
2013-01-08 07:15:00,40.6,3.8,30.18,WSW,249,11.0,11.0,21,-99.99,,---,-99.99,VWS V14.01,2013-01-08 15:15:00,
2013-01-08 07:20:00,40.6,3.8,30.18,WSW,248,10.5,10.5,21,-99.99,,---,-99.99,VWS V14.01,2013-01-08 15:20:00,
2013-01-08 07:25:00,40.8,3.9,30.18,WSW,249,8.3,8.3,21,-99.99,,---,-99.99,VWS V14.01,2013-01-08 15:25:00,
2013-01-08 07:30:00,40.8,3.9,30.18,WSW,252,10.5,10.5,21,-99.99,,---,-99.99,VWS V14.01,2013-01-08 15:30:00,
2013-01-08 07:35:00,40.8,3.9,30.18,West,259,10.1,10.1,21,-99.99,,---,-99.99,VWS V14.01,2013-01-08 15:35:00,
2013-01-08 07:40:00,41.0,4.1,30.18,WSW,251,8.7,8.7,21,-99.99,,---,-99.99,VWS V14.01,2013-01-08 15:40:00,
2013-01-08 07:45:00,41.2,4.2,30.18,WSW,251,10.1,10.1,21,-99.99,,---,-99.99,VWS V14.01,2013-01-08 15:45:00,
2013-01-08 07:50:00,41.2,4.2,30.18,WSW,254,10.5,10.5,21,-99.99,,---,-99.99,VWS V14.01,2013-01-08 15:50:00,
2013-01-08 07:55:00,41.5,4.5,30.18,West,262,8.7,8.7,21,-99.99,,---,-99.99,VWS V14.01,2013-01-08 15:55:00,
2013-01-08 08:00:00,41.7,4.7,30.18,WSW,258,8.3,8.3,21,-99.99,,---,-99.99,VWS V14.01,2013-01-08 16:00:00,
2013-01-08 08:05:00,42.1,5.0,30.18,West,263,8.1,8.1,21,-99.99,,---,-99.99,VWS V14.01,2013-01-08 16:05:00,
2013-01-08 08:10:00,42.1,5.0,30.18,West,265,8.1,8.1,21,-99.99,,---,-99.99,VWS V14.01,2013-01-08 16:10:00,
2013-01-08 08:15:00,42.6,5.4,30.18,West,265,8.1,8.1,21,-99.99,,---,-99.99,VWS V14.01,2013-01-08 16:15:00,
2013-01-08 08:20:00,42.8,4.5,30.18,West,265,6.3,6.3,20,-99.99,,---,-99.99,VWS V14.01,2013-01-08 16:20:00,
2013-01-08 08:25:00,43.0,4.7,30.18,West,269,5.8,5.8,20,-99.99,,---,-99.99,VWS V14.01,2013-01-08 16:25:00,
2013-01-08 08:30:00,43.0,4.7,30.18,West,280,3.6,5.8,20,-99.99,,---,-99.99,VWS V14.01,2013-01-08 16:30:00,
2013-01-08 08:35:00,43.7,5.3,30.18,WNW,284,0.0,0.0,20,-99.99,,---,-99.99,VWS V14.01,2013-01-08 16:35:00,
2013-01-08 08:40:00,44.6,6.0,30.18,WNW,283,0.0,0.0,20,-99.99,,---,-99.99,VWS V14.01,2013-01-08 16:40:00,
2013-01-08 08:45:00,44.8,6.2,30.18,NNW,343,0.0,0.0,20,-99.99,,---,-99.99,VWS V14.01,2013-01-08 16:45:00,
2013-01-08 08:50:00,46.8,6.7,30.18,NNW,328,0.0,0.0,19,-99.99,,---,-99.99,VWS V14.01,2013-01-08 16:50:00,
2013-01-08 08:55:00,46.8,6.7,30.18,NNW,345,0.0,0.0,19,-99.99,,---,-99.99,VWS V14.01,2013-01-08 16:55:00,
2013-01-08 09:00:00,47.7,7.4,30.18,North,0,0.0,0.0,19,-99.99,,---,-99.99,VWS V14.01,2013-01-08 17:00:00,
2013-01-08 09:05:00,48.4,8.0,30.18,North,0,0.0,0.0,19,-99.99,,---,-99.99,VWS V14.01,2013-01-08 17:05:00,
2013-01-08 09:10:00,48.6,8.2,30.18,North,0,0.0,0.0,19,-99.99,,---,-99.99,VWS V14.01,2013-01-08 17:10:00,
2013-01-08 09:15:00,49.1,8.6,30.18,North,10,0.0,0.0,19,-99.99,,---,-99.99,VWS V14.01,2013-01-08 17:15:00,
2013-01-08 09:20:00,49.1,8.6,30.18,North,357,0.0,0.0,19,-99.99,,---,-99.99,VWS V14.01,2013-01-08 17:20:00,
2013-01-08 09:26:00,49.8,9.2,30.18,North,0,0.0,0.0,19,-99.99,,---,-99.99,VWS V14.01,2013-01-08 17:26:00,
2013-01-08 09:30:00,50.4,9.7,30.18,North,357,0.0,0.0,19,-99.99,,---,-99.99,VWS V14.01,2013-01-08 17:30:00,
2013-01-08 09:36:00,50.7,10.0,30.18,NNE,20,0.0,0.0,19,-99.99,,---,-99.99,VWS V14.01,2013-01-08 17:36:00,
2013-01-08 09:41:00,50.5,9.8,30.18,North,353,0.0,0.0,19,-99.99,,---,-99.99,VWS V14.01,2013-01-08 17:41:00,
2013-01-08 09:46:00,50.5,9.8,30.18,North,10,6.7,6.7,19,-99.99,,---,-99.99,VWS V14.01,2013-01-08 17:46:00,
2013-01-08 09:51:00,50.0,9.4,30.18,North,350,7.6,7.6,19,-99.99,,---,-99.99,VWS V14.01,2013-01-08 17:51:00,
2013-01-08 09:56:00,49.8,9.2,30.18,North,357,11.0,11.0,19,-99.99,,---,-99.99,VWS V14.01,2013-01-08 17:56:00,
2013-01-08 10:01:00,49.6,9.1,30.18,North,0,8.7,8.7,19,-99.99,,---,-99.99,VWS V14.01,2013-01-08 18:01:00,
2013-01-08 10:06:00,49.8,9.2,30.18,NNW,340,0.0,0.0,19,-99.99,,---,-99.99,VWS V14.01,2013-01-08 18:06:00,
2013-01-08 10:11:00,49.6,9.1,30.18,North,0,8.7,8.7,19,-99.99,,---,-99.99,VWS V14.01,2013-01-08 18:11:00,
2013-01-08 10:16:00,49.8,9.2,30.18,North,3,8.7,8.7,19,-99.99,,---,-99.99,VWS V14.01,2013-01-08 18:16:00,
2013-01-08 10:21:00,49.8,9.2,30.18,North,3,8.7,8.7,19,-99.99,,---,-99.99,VWS V14.01,2013-01-08 18:21:00,
2013-01-08 10:26:00,50.0,9.4,30.18,North,357,12.8,12.8,19,-99.99,,---,-99.99,VWS V14.01,2013-01-08 18:26:00,
2013-01-08 10:31:00,49.8,9.2,30.18,North,357,12.8,12.8,19,-99.99,,---,-99.99,VWS V14.01,2013-01-08 18:31:00,
2013-01-08 10:36:00,50.0,9.4,30.18,North,357,12.8,12.8,19,-99.99,,---,-99.99,VWS V14.01,2013-01-08 18:36:00,
2013-01-08 10:41:00,49.8,9.2,30.18,North,357,12.8,12.8,19,-99.99,,---,-99.99,VWS V14.01,2013-01-08 18:41:00,
2013-01-08 10:46:00,49.8,9.2,30.18,North,357,12.8,12.8,19,-99.99,,---,-99.99,VWS V14.01,2013-01-08 18:46:00,
2013-01-08 10:51:00,50.2,9.5,30.18,North,357,12.8,12.8,19,-99.99,,---,-99.99,VWS V14.01,2013-01-08 18:51:00,
2013-01-08 10:56:00,49.8,9.2,30.18,North,357,12.8,12.8,19,-99.99,,---,-99.99,VWS V14.01,2013-01-08 18:56:00,
2013-01-08 11:01:00,50.2,9.5,30.21,North,357,12.8,12.8,19,-99.99,,---,-99.99,VWS V14.01,2013-01-08 19:01:00,
2013-01-08 11:06:00,49.8,9.2,30.21,North,357,12.8,12.8,19,-99.99,,---,-99.99,VWS V14.01,2013-01-08 19:06:00,
2013-01-08 11:11:00,50.0,9.4,30.21,North,357,12.8,12.8,19,-99.99,,---,-99.99,VWS V14.01,2013-01-08 19:11:00,
2013-01-08 11:16:00,50.5,9.8,30.21,North,357,12.8,12.8,19,-99.99,,---,-99.99,VWS V14.01,2013-01-08 19:16:00,
2013-01-08 11:21:00,50.5,9.8,30.21,North,357,12.8,12.8,19,-99.99,,---,-99.99,VWS V14.01,2013-01-08 19:21:00,
2013-01-08 11:26:00,49.3,8.8,30.21,North,357,12.8,12.8,19,-99.99,,---,-99.99,VWS V14.01,2013-01-08 19:26:00,
2013-01-08 11:31:00,48.7,8.3,30.21,North,357,12.8,12.8,19,-99.99,,---,-99.99,VWS V14.01,2013-01-08 19:31:00,
2013-01-08 11:36:00,48.7,8.3,30.21,North,357,12.8,12.8,19,-99.99,,---,-99.99,VWS V14.01,2013-01-08 19:36:00,
2013-01-08 11:41:00,49.3,8.8,30.21,North,357,12.8,12.8,19,-99.99,,---,-99.99,VWS V14.01,2013-01-08 19:41:00,
2013-01-08 11:46:00,49.3,8.8,30.21,North,357,12.8,12.8,19,-99.99,,---,-99.99,VWS V14.01,2013-01-08 19:46:00,
2013-01-08 11:51:00,48.7,8.3,30.21,North,357,12.8,12.8,19,-99.99,,---,-99.99,VWS V14.01,2013-01-08 19:51:00,
2013-01-08 11:56:00,48.7,8.3,30.21,North,357,12.8,12.8,19,-99.99,,---,-99.99,VWS V14.01,2013-01-08 19:56:00,
2013-01-08 12:01:00,48.6,8.2,30.21,North,357,12.8,12.8,19,-99.99,,---,-99.99,VWS V14.01,2013-01-08 20:01:00,
2013-01-08 12:06:00,48.6,8.2,30.21,North,357,12.8,12.8,19,-99.99,,---,-99.99,VWS V14.01,2013-01-08 20:06:00,
2013-01-08 12:11:00,48.7,8.3,30.18,North,357,12.8,12.8,19,-99.99,,---,-99.99,VWS V14.01,2013-01-08 20:11:00,
2013-01-08 12:16:00,48.4,8.0,30.18,North,357,12.8,12.8,19,-99.99,,---,-99.99,VWS V14.01,2013-01-08 20:16:00,
2013-01-08 12:21:00,48.4,8.0,30.18,North,357,12.8,12.8,19,-99.99,,---,-99.99,VWS V14.01,2013-01-08 20:21:00,
2013-01-08 12:26:00,48.0,7.7,30.18,North,357,12.8,12.8,19,-99.99,,---,-99.99,VWS V14.01,2013-01-08 20:26:00,
2013-01-08 12:31:00,48.2,7.9,30.18,North,357,12.8,12.8,19,-99.99,,---,-99.99,VWS V14.01,2013-01-08 20:31:00,
2013-01-08 12:36:00,48.0,7.7,30.18,North,357,12.8,12.8,19,-99.99,,---,-99.99,VWS V14.01,2013-01-08 20:36:00,
2013-01-08 12:41:00,47.8,7.6,30.18,North,357,12.8,12.8,19,-99.99,,---,-99.99,VWS V14.01,2013-01-08 20:41:00,
2013-01-08 12:46:00,48.0,7.7,30.18,North,357,12.8,12.8,19,-99.99,,---,-99.99,VWS V14.01,2013-01-08 20:46:00,
2013-01-08 12:51:00,48.7,8.3,30.21,North,357,12.8,12.8,19,-99.99,,---,-99.99,VWS V14.01,2013-01-08 20:51:00,
2013-01-08 12:56:00,48.7,8.3,30.21,North,357,12.8,12.8,19,-99.99,,---,-99.99,VWS V14.01,2013-01-08 20:56:00,
2013-01-08 13:01:00,48.6,8.2,30.21,North,357,12.8,12.8,19,-99.99,,---,-99.99,VWS V14.01,2013-01-08 21:01:00,
2013-01-08 13:06:00,48.6,8.2,30.18,North,357,12.8,12.8,19,-99.99,,---,-99.99,VWS V14.01,2013-01-08 21:06:00,
2013-01-08 13:11:00,48.6,8.2,30.18,North,357,12.8,12.8,19,-99.99,,---,-99.99,VWS V14.01,2013-01-08 21:11:00,
2013-01-08 13:16:00,48.4,8.0,30.18,North,357,12.8,12.8,19,-99.99,,---,-99.99,VWS V14.01,2013-01-08 21:16:00,
2013-01-08 13:21:00,48.7,8.3,30.18,North,357,12.8,12.8,19,-99.99,,---,-99.99,VWS V14.01,2013-01-08 21:21:00,
2013-01-08 13:26:00,48.7,8.3,30.18,North,357,12.8,12.8,19,-99.99,,---,-99.99,VWS V14.01,2013-01-08 21:26:00,
2013-01-08 13:31:00,49.1,8.6,30.18,North,357,12.8,12.8,19,-99.99,,---,-99.99,VWS V14.01,2013-01-08 21:31:00,
2013-01-08 13:36:00,49.1,8.6,30.21,North,357,12.8,12.8,19,-99.99,,---,-99.99,VWS V14.01,2013-01-08 21:36:00,
2013-01-08 13:41:00,48.7,8.3,30.21,North,357,12.8,12.8,19,-99.99,,---,-99.99,VWS V14.01,2013-01-08 21:41:00,
2013-01-08 13:46:00,48.7,8.3,30.21,North,357,12.8,12.8,19,-99.99,,---,-99.99,VWS V14.01,2013-01-08 21:46:00,
2013-01-08 13:51:00,48.9,8.5,30.21,North,357,12.8,12.8,19,-99.99,,---,-99.99,VWS V14.01,2013-01-08 21:51:00,
2013-01-08 13:56:00,48.9,8.5,30.21,North,357,12.8,12.8,19,-99.99,,---,-99.99,VWS V14.01,2013-01-08 21:56:00,
2013-01-08 14:01:00,49.1,8.6,30.21,North,357,12.8,12.8,19,-99.99,,---,-99.99,VWS V14.01,2013-01-08 22:01:00,
2013-01-08 14:06:00,48.4,8.0,30.21,North,357,12.8,12.8,19,-99.99,,---,-99.99,VWS V14.01,2013-01-08 22:06:00,
2013-01-08 14:11:00,48.6,8.2,30.21,North,357,12.8,12.8,19,-99.99,,---,-99.99,VWS V14.01,2013-01-08 22:11:00,
2013-01-08 14:16:00,48.6,8.2,30.21,North,357,12.8,12.8,19,-99.99,,---,-99.99,VWS V14.01,2013-01-08 22:16:00,
2013-01-08 14:21:00,48.6,8.2,30.21,North,357,12.8,12.8,19,-99.99,,---,-99.99,VWS V14.01,2013-01-08 22:21:00,
2013-01-08 14:26:00,48.7,8.3,30.21,North,357,12.8,12.8,19,-99.99,,---,-99.99,VWS V14.01,2013-01-08 22:26:00,
2013-01-08 14:31:00,48.7,8.3,30.21,North,357,12.8,12.8,19,-99.99,,---,-99.99,VWS V14.01,2013-01-08 22:31:00,
2013-01-08 14:36:00,48.2,7.9,30.21,North,357,12.8,12.8,19,-99.99,,---,-99.99,VWS V14.01,2013-01-08 22:36:00,
2013-01-08 14:41:00,48.2,7.9,30.21,North,357,12.8,12.8,19,-99.99,,---,-99.99,VWS V14.01,2013-01-08 22:41:00,
2013-01-08 14:46:00,48.2,7.9,30.21,North,357,12.8,12.8,19,-99.99,,---,-99.99,VWS V14.01,2013-01-08 22:46:00,
2013-01-08 14:51:00,48.2,7.9,30.21,North,357,12.8,12.8,19,-99.99,,---,-99.99,VWS V14.01,2013-01-08 22:51:00,
2013-01-08 14:56:00,48.2,7.9,30.21,North,357,12.8,12.8,19,-99.99,,---,-99.99,VWS V14.01,2013-01-08 22:56:00,
2013-01-08 15:02:00,48.2,7.9,30.21,North,357,12.8,12.8,19,-99.99,,---,-99.99,VWS V14.01,2013-01-08 23:02:00,
2013-01-08 15:07:00,47.8,7.6,30.21,North,357,12.8,12.8,19,-99.99,,---,-99.99,VWS V14.01,2013-01-08 23:07:00,
2013-01-08 15:12:00,47.5,7.3,30.21,North,357,12.8,12.8,19,-99.99,,---,-99.99,VWS V14.01,2013-01-08 23:12:00,
2013-01-08 15:17:00,47.3,7.1,30.21,North,357,12.8,12.8,19,-99.99,,---,-99.99,VWS V14.01,2013-01-08 23:17:00,
2013-01-08 15:22:00,47.3,7.1,30.21,NNW,332,12.3,12.3,19,-99.99,,---,-99.99,VWS V14.01,2013-01-08 23:22:00,
2013-01-08 15:27:00,46.8,6.7,30.21,NW,323,8.3,12.3,19,-99.99,,---,-99.99,VWS V14.01,2013-01-08 23:27:00,
2013-01-08 15:32:00,46.8,6.7,30.21,NNW,341,7.6,7.6,19,-99.99,,---,-99.99,VWS V14.01,2013-01-08 23:32:00,
2013-01-08 15:37:00,46.8,6.7,30.21,NNW,327,8.3,8.3,19,-99.99,,---,-99.99,VWS V14.01,2013-01-08 23:37:00,
2013-01-08 15:42:00,46.8,6.7,30.21,NW,308,5.8,5.8,19,-99.99,,---,-99.99,VWS V14.01,2013-01-08 23:42:00,
2013-01-08 15:47:00,46.2,7.4,30.21,NW,309,4.9,4.9,20,-99.99,,---,-99.99,VWS V14.01,2013-01-08 23:47:00,
2013-01-08 15:52:00,46.2,7.4,30.21,NW,305,7.6,7.6,20,-99.99,,---,-99.99,VWS V14.01,2013-01-08 23:52:00,
2013-01-08 15:57:00,46.2,7.4,30.21,NW,311,6.7,8.1,20,-99.99,,---,-99.99,VWS V14.01,2013-01-08 23:57:00,
2013-01-08 16:02:00,45.9,7.1,30.21,NNW,343,7.6,7.6,20,-99.99,,---,-99.99,VWS V14.01,2013-01-09 00:02:00,
2013-01-08 16:07:00,45.9,7.1,30.21,NW,307,8.3,8.3,20,-99.99,,---,-99.99,VWS V14.01,2013-01-09 00:07:00,
2013-01-08 16:12:00,45.9,7.1,30.21,NW,326,8.1,8.1,20,-99.99,,---,-99.99,VWS V14.01,2013-01-09 00:12:00,
2013-01-08 16:17:00,45.9,7.1,30.21,NNW,343,5.4,5.4,20,-99.99,,---,-99.99,VWS V14.01,2013-01-09 00:17:00,
2013-01-08 16:22:00,45.9,7.1,30.21,NW,313,6.3,6.3,20,-99.99,,---,-99.99,VWS V14.01,2013-01-09 00:22:00,
2013-01-08 16:27:00,46.0,7.2,30.21,NW,320,0.0,0.0,20,-99.99,,---,-99.99,VWS V14.01,2013-01-09 00:27:00,
2013-01-08 16:32:00,46.0,7.2,30.21,NW,319,5.4,5.4,20,-99.99,,---,-99.99,VWS V14.01,2013-01-09 00:32:00,
2013-01-08 16:37:00,46.0,7.2,30.21,NW,318,8.7,8.7,20,-99.99,,---,-99.99,VWS V14.01,2013-01-09 00:37:00,
2013-01-08 16:42:00,46.0,7.2,30.21,West,279,8.3,8.3,20,-99.99,,---,-99.99,VWS V14.01,2013-01-09 00:42:00,
2013-01-08 16:47:00,46.0,7.2,30.21,West,280,9.2,9.2,20,-99.99,,---,-99.99,VWS V14.01,2013-01-09 00:47:00,
2013-01-08 16:52:00,46.0,7.2,30.21,WNW,298,8.1,8.1,20,-99.99,,---,-99.99,VWS V14.01,2013-01-09 00:52:00,
2013-01-08 16:57:00,46.0,7.2,30.21,WNW,295,0.0,8.7,20,-99.99,,---,-99.99,VWS V14.01,2013-01-09 00:57:00,
2013-01-08 17:02:00,44.2,5.7,30.21,WNW,291,0.0,0.0,20,-99.99,,---,-99.99,VWS V14.01,2013-01-09 01:02:00,
2013-01-08 17:07:00,44.2,5.7,30.24,WNW,289,0.0,0.0,20,-99.99,,---,-99.99,VWS V14.01,2013-01-09 01:07:00,
2013-01-08 17:12:00,44.2,5.7,30.24,WNW,292,8.3,8.3,20,-99.99,,---,-99.99,VWS V14.01,2013-01-09 01:12:00,
2013-01-08 17:17:00,44.2,5.7,30.24,NW,305,5.4,5.4,20,-99.99,,---,-99.99,VWS V14.01,2013-01-09 01:17:00,
2013-01-08 17:22:00,44.2,5.7,30.24,NW,311,8.3,8.3,20,-99.99,,---,-99.99,VWS V14.01,2013-01-09 01:22:00,
2013-01-08 17:27:00,44.2,5.7,30.24,WNW,287,7.2,7.2,20,-99.99,,---,-99.99,VWS V14.01,2013-01-09 01:27:00,
2013-01-08 17:32:00,44.2,5.7,30.24,WNW,292,10.1,10.1,20,-99.99,,---,-99.99,VWS V14.01,2013-01-09 01:32:00,
2013-01-08 17:37:00,44.2,5.7,30.24,NW,325,8.3,8.3,20,-99.99,,---,-99.99,VWS V14.01,2013-01-09 01:37:00,
2013-01-08 17:42:00,43.5,5.1,30.24,NNW,335,7.6,7.6,20,-99.99,,---,-99.99,VWS V14.01,2013-01-09 01:42:00,
2013-01-08 17:47:00,43.5,5.1,30.24,NW,311,6.3,6.3,20,-99.99,,---,-99.99,VWS V14.01,2013-01-09 01:47:00,
2013-01-08 17:52:00,43.5,5.1,30.24,NW,312,8.3,8.3,20,-99.99,,---,-99.99,VWS V14.01,2013-01-09 01:52:00,
2013-01-08 17:57:00,43.5,5.1,30.24,WNW,300,8.1,8.1,20,-99.99,,---,-99.99,VWS V14.01,2013-01-09 01:57:00,
2013-01-08 18:02:00,43.5,5.1,30.24,NW,317,6.3,6.3,20,-99.99,,---,-99.99,VWS V14.01,2013-01-09 02:02:00,
2013-01-08 18:07:00,43.5,5.1,30.24,North,353,13.2,13.2,20,-99.99,,---,-99.99,VWS V14.01,2013-01-09 02:07:00,
2013-01-08 18:12:00,43.5,5.1,30.24,NNW,341,5.8,5.8,20,-99.99,,---,-99.99,VWS V14.01,2013-01-09 02:12:00,
2013-01-08 18:17:00,43.7,5.3,30.24,NW,322,7.6,7.6,20,-99.99,,---,-99.99,VWS V14.01,2013-01-09 02:17:00,
2013-01-08 18:22:00,43.7,5.3,30.24,NNW,337,8.7,8.7,20,-99.99,,---,-99.99,VWS V14.01,2013-01-09 02:22:00,
2013-01-08 18:27:00,43.7,5.3,30.24,NW,324,5.4,5.4,20,-99.99,,---,-99.99,VWS V14.01,2013-01-09 02:27:00,
2013-01-08 18:32:00,43.7,5.3,30.24,WNW,297,7.6,7.6,20,-99.99,,---,-99.99,VWS V14.01,2013-01-09 02:32:00,
2013-01-08 18:37:00,43.7,5.3,30.24,NNW,334,6.3,6.3,20,-99.99,,---,-99.99,VWS V14.01,2013-01-09 02:37:00,
2013-01-08 18:42:00,43.7,5.3,30.24,NW,307,8.3,8.3,20,-99.99,,---,-99.99,VWS V14.01,2013-01-09 02:42:00,
2013-01-08 18:47:00,43.7,5.3,30.24,NNW,327,8.1,8.3,20,-99.99,,---,-99.99,VWS V14.01,2013-01-09 02:47:00,
2013-01-08 18:52:00,44.2,5.7,30.24,NNW,332,6.3,6.3,20,-99.99,,---,-99.99,VWS V14.01,2013-01-09 02:52:00,
2013-01-08 18:57:00,44.2,5.7,30.24,NW,319,6.3,6.3,20,-99.99,,---,-99.99,VWS V14.01,2013-01-09 02:57:00,
2013-01-08 19:02:00,44.2,5.7,30.24,NW,319,6.3,6.3,20,-99.99,,---,-99.99,VWS V14.01,2013-01-09 03:02:00,
2013-01-08 19:07:00,44.2,5.7,30.24,NNW,348,8.7,8.7,20,-99.99,,---,-99.99,VWS V14.01,2013-01-09 03:07:00,
2013-01-08 19:12:00,44.2,5.7,30.24,NW,322,8.1,8.1,20,-99.99,,---,-99.99,VWS V14.01,2013-01-09 03:12:00,
2013-01-08 19:17:00,44.2,5.7,30.24,NNW,343,8.1,8.1,20,-99.99,,---,-99.99,VWS V14.01,2013-01-09 03:17:00,
2013-01-08 19:22:00,44.2,5.7,30.24,NW,320,9.6,9.6,20,-99.99,,---,-99.99,VWS V14.01,2013-01-09 03:22:00,
2013-01-08 19:27:00,44.2,5.7,30.24,NNW,336,7.6,7.6,20,-99.99,,---,-99.99,VWS V14.01,2013-01-09 03:27:00,
2013-01-08 19:32:00,44.6,6.0,30.24,NNW,339,8.7,8.7,20,-99.99,,---,-99.99,VWS V14.01,2013-01-09 03:32:00,
2013-01-08 19:37:00,44.6,6.0,30.24,NNW,339,8.7,8.7,20,-99.99,,---,-99.99,VWS V14.01,2013-01-09 03:37:00,
2013-01-08 19:42:00,44.6,6.0,30.24,NW,304,6.3,6.3,20,-99.99,,---,-99.99,VWS V14.01,2013-01-09 03:42:00,
2013-01-08 19:47:00,44.6,6.0,30.24,NNW,328,10.5,12.8,20,-99.99,,---,-99.99,VWS V14.01,2013-01-09 03:47:00,
2013-01-08 19:52:00,44.6,6.0,30.24,NW,317,9.6,10.5,20,-99.99,,---,-99.99,VWS V14.01,2013-01-09 03:52:00,
2013-01-08 19:57:00,44.6,6.0,30.24,NW,324,15.0,15.0,20,-99.99,,---,-99.99,VWS V14.01,2013-01-09 03:57:00,
2013-01-08 20:02:00,44.6,6.0,30.24,NNW,340,10.1,10.1,20,-99.99,,---,-99.99,VWS V14.01,2013-01-09 04:02:00,
2013-01-08 20:07:00,44.6,6.0,30.24,NNW,335,12.3,12.3,20,-99.99,,---,-99.99,VWS V14.01,2013-01-09 04:07:00,
2013-01-08 20:13:00,44.6,6.0,30.24,NNW,335,12.3,12.3,20,-99.99,,---,-99.99,VWS V14.01,2013-01-09 04:13:00,
2013-01-08 20:18:00,44.6,6.0,30.24,North,353,12.3,12.3,20,-99.99,,---,-99.99,VWS V14.01,2013-01-09 04:18:00,
2013-01-08 20:23:00,44.6,6.0,30.24,NNW,333,15.9,15.9,20,-99.99,,---,-99.99,VWS V14.01,2013-01-09 04:23:00,
2013-01-08 20:28:00,44.6,6.0,30.24,North,357,11.0,15.9,20,-99.99,,---,-99.99,VWS V14.01,2013-01-09 04:28:00,
2013-01-08 20:33:00,44.6,6.0,30.24,NNW,330,11.9,11.9,20,-99.99,,---,-99.99,VWS V14.01,2013-01-09 04:33:00,
2013-01-08 20:38:00,44.6,6.0,30.27,NNW,331,11.9,11.9,20,-99.99,,---,-99.99,VWS V14.01,2013-01-09 04:38:00,
2013-01-08 20:43:00,44.6,6.0,30.27,North,353,10.1,10.1,20,-99.99,,---,-99.99,VWS V14.01,2013-01-09 04:43:00,
2013-01-08 20:48:00,44.6,6.0,30.27,North,353,10.1,10.1,20,-99.99,,---,-99.99,VWS V14.01,2013-01-09 04:48:00,
2013-01-08 20:53:00,44.6,6.0,30.27,NNW,335,8.1,8.1,20,-99.99,,---,-99.99,VWS V14.01,2013-01-09 04:53:00,
2013-01-08 20:58:00,44.6,6.0,30.27,NNW,348,10.5,10.5,20,-99.99,,---,-99.99,VWS V14.01,2013-01-09 04:58:00,
2013-01-08 21:00:00,44.6,6.0,30.27,NNW,348,10.5,10.5,20,-99.99,,---,-99.99,VWS V14.01,2013-01-09 05:00:00,
2013-01-08 21:02:00,44.6,6.0,30.27,NNW,348,10.5,10.5,20,-99.99,,---,-99.99,VWS V14.01,2013-01-09 05:02:00,
2013-01-08 21:07:00,44.6,6.0,30.27,NNW,340,11.0,11.0,20,-99.99,,---,-99.99,VWS V14.01,2013-01-09 05:07:00,
2013-01-08 21:12:00,44.6,6.0,30.27,North,357,12.8,12.8,20,-99.99,,---,-99.99,VWS V14.01,2013-01-09 05:12:00,
2013-01-08 21:17:00,44.6,6.0,30.27,North,0,10.1,10.1,20,-99.99,,---,-99.99,VWS V14.01,2013-01-09 05:17:00,
2013-01-08 21:22:00,44.6,6.0,30.27,NNW,335,13.2,13.2,20,-99.99,,---,-99.99,VWS V14.01,2013-01-09 05:22:00,
2013-01-08 21:27:00,44.6,6.0,30.27,NNW,335,12.8,12.8,20,-99.99,,---,-99.99,VWS V14.01,2013-01-09 05:27:00,
2013-01-08 21:32:00,44.6,6.0,30.27,North,0,12.3,12.3,20,-99.99,,---,-99.99,VWS V14.01,2013-01-09 05:32:00,
2013-01-08 21:37:00,44.6,6.0,30.27,North,353,12.3,12.3,20,-99.99,,---,-99.99,VWS V14.01,2013-01-09 05:37:00,
2013-01-08 21:42:00,44.6,6.0,30.27,North,2,12.3,12.3,20,-99.99,,---,-99.99,VWS V14.01,2013-01-09 05:42:00,
2013-01-08 21:47:00,44.6,6.0,30.27,North,353,11.0,11.0,20,-99.99,,---,-99.99,VWS V14.01,2013-01-09 05:47:00,
2013-01-08 21:52:00,44.6,6.0,30.27,North,0,11.0,11.0,20,-99.99,,---,-99.99,VWS V14.01,2013-01-09 05:52:00,
2013-01-08 21:57:00,44.8,6.2,30.27,North,0,11.0,11.0,20,-99.99,,---,-99.99,VWS V14.01,2013-01-09 05:57:00,
2013-01-08 22:02:00,44.8,6.2,30.27,North,357,8.1,8.1,20,-99.99,,---,-99.99,VWS V14.01,2013-01-09 06:02:00,
2013-01-08 22:07:00,44.8,6.2,30.27,North,353,4.0,4.0,20,-99.99,,---,-99.99,VWS V14.01,2013-01-09 06:07:00,
2013-01-08 22:12:00,44.8,6.2,30.27,North,9,8.1,8.1,20,-99.99,,---,-99.99,VWS V14.01,2013-01-09 06:12:00,
2013-01-08 22:17:00,44.8,6.2,30.27,North,2,7.6,7.6,20,-99.99,,---,-99.99,VWS V14.01,2013-01-09 06:17:00,
2013-01-08 22:22:00,44.8,6.2,30.27,NNE,15,8.3,8.3,20,-99.99,,---,-99.99,VWS V14.01,2013-01-09 06:22:00,
2013-01-08 22:27:00,44.8,6.2,30.27,North,11,6.3,6.3,20,-99.99,,---,-99.99,VWS V14.01,2013-01-09 06:27:00,
2013-01-08 22:32:00,44.8,6.2,30.27,NNE,15,5.8,5.8,20,-99.99,,---,-99.99,VWS V14.01,2013-01-09 06:32:00,
2013-01-08 22:37:00,44.8,6.2,30.27,NNE,20,8.1,8.1,20,-99.99,,---,-99.99,VWS V14.01,2013-01-09 06:37:00,
2013-01-08 22:42:00,44.8,6.2,30.27,North,4,8.1,8.1,20,-99.99,,---,-99.99,VWS V14.01,2013-01-09 06:42:00,
2013-01-08 22:47:00,44.8,6.2,30.27,NNE,15,5.8,8.1,20,-99.99,,---,-99.99,VWS V14.01,2013-01-09 06:47:00,
2013-01-08 22:52:00,44.8,6.2,30.27,NNE,12,7.6,7.6,20,-99.99,,---,-99.99,VWS V14.01,2013-01-09 06:52:00,
2013-01-08 22:57:00,44.8,6.2,30.27,North,6,4.0,5.8,20,-99.99,,---,-99.99,VWS V14.01,2013-01-09 06:57:00,
2013-01-08 23:02:00,44.8,6.2,30.27,North,11,8.7,8.7,20,-99.99,,---,-99.99,VWS V14.01,2013-01-09 07:02:00,
2013-01-08 23:07:00,44.8,6.2,30.27,NNE,14,6.3,6.3,20,-99.99,,---,-99.99,VWS V14.01,2013-01-09 07:07:00,
2013-01-08 23:12:00,44.2,5.7,30.27,NNE,16,5.4,5.4,20,-99.99,,---,-99.99,VWS V14.01,2013-01-09 07:12:00,
2013-01-08 23:18:00,44.2,5.7,30.27,North,9,5.4,5.4,20,-99.99,,---,-99.99,VWS V14.01,2013-01-09 07:18:00,
2013-01-08 23:22:00,44.2,5.7,30.27,North,5,5.4,5.4,20,-99.99,,---,-99.99,VWS V14.01,2013-01-09 07:22:00,
2013-01-08 23:27:00,44.2,5.7,30.27,North,11,6.3,6.3,20,-99.99,,---,-99.99,VWS V14.01,2013-01-09 07:27:00,
2013-01-08 23:32:00,44.2,5.7,30.27,NNE,22,6.3,6.3,20,-99.99,,---,-99.99,VWS V14.01,2013-01-09 07:32:00,
2013-01-08 23:37:00,44.2,5.7,30.27,NNE,19,5.4,5.4,20,-99.99,,---,-99.99,VWS V14.01,2013-01-09 07:37:00,
2013-01-08 23:42:00,44.2,5.7,30.27,NNE,31,9.6,9.6,20,-99.99,,---,-99.99,VWS V14.01,2013-01-09 07:42:00,
2013-01-08 23:47:00,43.7,5.3,30.27,NNE,31,9.6,9.6,20,-99.99,,---,-99.99,VWS V14.01,2013-01-09 07:47:00,
2013-01-08 23:52:00,43.7,5.3,30.27,NNE,24,10.5,10.5,20,-99.99,,---,-99.99,VWS V14.01,2013-01-09 07:52:00,
2013-01-08 23:58:00,43.7,5.3,30.27,NNE,23,6.7,10.5,20,-99.99,,---,-99.99,VWS V14.01,2013-01-09 07:58:00,